Weather History for Marfa, TX

Change the Weather History Date:

Sunday, February 17, 2013

  Actual Average Record
Temperature  
Mean Temperature 40 °F -  
Max Temperature 66 °F 59 °F 75 °F (2000)
Min Temperature 15 °F 29 °F 12 °F (1998)
Degree Days  
Heating Degree Days 24    
Moisture  
Dew Point 9 °F    
Average Humidity 31    
Maximum Humidity 58    
Minimum Humidity 11    
Precipitation  
Precipitation 0.00 in - - ()
Sea Level Pressure  
Sea Level Pressure 30.06 in    
Wind  
Wind Speed 5 mph (NNE)    
Max Wind Speed 20 mph    
Max Gust Speed 23 mph    
Visibility 10 miles    
Events      
Averages and records for this station are not official NWS values.
T = Trace of Precipitation, MM = Missing Value Source: NWS Daily Summary

Daily Weather History Graph

Daily Weather History Graph

Search for Another Location

Airport:

Trip Planner

Search our weather history database for the weather conditions in past years. The results will help you decide how hot, cold, wet, or windy it might be!

Date:

Astronomy

Feb. 17, 2013 Rise Set
Actual Time 7:34 AM CST 6:46 PM CST
Civil Twilight 7:09 AM CST 7:10 PM CST
Nautical Twilight 6:41 AM CST 7:38 PM CST
Astronomical Twilight 6:13 AM CST 8:06 PM CST
Moon 12:02 PM CST (2/17) 1:11 AM CST (2/17)
Length of Visible Light 12h 00m
Length of Day
11h 12m
Waxing Crescent, 49% of the Moon is Illuminated
Feb 17
Waxing Crescent
Feb 17
First Quarter
Feb 25
Full
Mar 4
Last Quarter
Mar 11
New

Hourly Weather History & Observations

Time (CST) Temp. Windchill Dew Point Humidity Pressure Visibility Wind Dir Wind Speed Gust Speed Precip Events Conditions
12:15 AM 24.8 °F - 5.0 °F 43% 30.23 in 10.0 mi Calm Calm - N/A   Clear
12:35 AM 24.8 °F - 6.8 °F 46% 30.22 in 10.0 mi Calm Calm - N/A   Clear
12:55 AM 24.8 °F 20.5 °F 5.0 °F 43% 30.22 in 10.0 mi North 3.5 mph - N/A   Clear
1:15 AM 23.0 °F 18.4 °F 3.2 °F 43% 30.21 in 10.0 mi North 3.5 mph - N/A   Clear
1:35 AM 23.0 °F 17.0 °F 5.0 °F 46% 30.21 in 10.0 mi NNE 4.6 mph - N/A   Clear
1:55 AM 23.0 °F 15.8 °F 5.0 °F 46% 30.20 in 10.0 mi NNE 5.8 mph - N/A   Clear
2:15 AM 21.2 °F 14.9 °F 5.0 °F 50% 30.20 in 10.0 mi NNE 4.6 mph - N/A   Clear
2:35 AM 21.2 °F 16.4 °F 5.0 °F 50% 30.19 in 10.0 mi NNE 3.5 mph - N/A   Clear
2:55 AM 19.4 °F 14.3 °F 3.2 °F 49% 30.18 in 10.0 mi North 3.5 mph - N/A   Clear
3:15 AM 21.2 °F 16.4 °F 5.0 °F 50% 30.17 in 10.0 mi North 3.5 mph - N/A   Clear
3:35 AM 19.4 °F 14.3 °F 3.2 °F 49% 30.16 in 10.0 mi North 3.5 mph - N/A   Clear
3:55 AM 19.4 °F 12.8 °F 3.2 °F 49% 30.16 in 10.0 mi North 4.6 mph - N/A   Clear
4:15 AM 19.4 °F 12.8 °F 3.2 °F 49% 30.16 in 10.0 mi North 4.6 mph - N/A   Clear
4:35 AM 19.4 °F 12.8 °F 3.2 °F 49% 30.15 in 10.0 mi NE 4.6 mph - N/A   Clear
4:55 AM 17.6 °F 10.7 °F 1.4 °F 49% 30.14 in 10.0 mi NE 4.6 mph - N/A   Clear
5:15 AM 19.4 °F 12.8 °F 6.8 °F 58% 30.14 in 10.0 mi NE 4.6 mph - N/A   Clear
5:35 AM 15.8 °F 7.2 °F 1.4 °F 53% 30.14 in 10.0 mi NNE 5.8 mph - N/A   Clear
5:55 AM 17.6 °F 12.3 °F 3.2 °F 53% 30.13 in 10.0 mi NNE 3.5 mph - N/A   Clear
6:15 AM 19.4 °F 14.3 °F 3.2 °F 49% 30.13 in 10.0 mi NNE 3.5 mph - N/A   Clear
6:35 AM 17.6 °F 9.3 °F 1.4 °F 49% 30.13 in 10.0 mi NNE 5.8 mph - N/A   Clear
6:55 AM 17.6 °F 10.7 °F 1.4 °F 49% 30.13 in 10.0 mi NNE 4.6 mph - N/A   Clear
7:15 AM 17.6 °F 10.7 °F 3.2 °F 53% 30.13 in 10.0 mi NNE 4.6 mph - N/A   Clear
7:35 AM 17.6 °F 9.3 °F 1.4 °F 49% 30.12 in 10.0 mi North 5.8 mph - N/A   Clear
7:55 AM 19.4 °F 11.5 °F 3.2 °F 49% 30.12 in 10.0 mi NNE 5.8 mph - N/A   Clear
8:15 AM 23.0 °F 14.7 °F 6.8 °F 50% 30.12 in 10.0 mi NNE 6.9 mph - N/A   Clear
8:35 AM 30.2 °F 26.7 °F 12.2 °F 47% 30.12 in 10.0 mi North 3.5 mph - N/A   Clear
8:55 AM 37.4 °F 34.9 °F 12.2 °F 36% 30.12 in 10.0 mi North 3.5 mph - N/A   Clear
9:15 AM 41.0 °F 39.0 °F 12.2 °F 31% 30.13 in 10.0 mi North 3.5 mph - N/A   Clear
9:35 AM 44.6 °F - 15.8 °F 31% 30.13 in 10.0 mi Calm Calm - N/A   Clear
9:55 AM 46.4 °F - 17.6 °F 32% 30.13 in 10.0 mi Calm Calm - N/A   Clear
10:15 AM 48.2 °F - 17.6 °F 30% 30.13 in 10.0 mi South 4.6 mph - N/A   Clear
10:35 AM 51.8 °F - 15.8 °F 24% 30.12 in 10.0 mi South 9.2 mph - N/A   Clear
10:55 AM 53.6 °F - 15.8 °F 22% 30.11 in 10.0 mi South 11.5 mph - N/A   Clear
11:15 AM 55.4 °F - 15.8 °F 21% 30.11 in 10.0 mi South 9.2 mph - N/A   Clear
11:35 AM 57.2 °F - 15.8 °F 20% 30.11 in 10.0 mi South 11.5 mph - N/A   Clear
11:55 AM 57.2 °F - 15.8 °F 20% 30.10 in 10.0 mi South 11.5 mph - N/A   Clear
12:15 PM 59.0 °F - 15.8 °F 19% 30.08 in 10.0 mi South 11.5 mph 16.1 mph N/A   Clear
12:35 PM 60.8 °F - 15.8 °F 17% 30.07 in 10.0 mi South 11.5 mph - N/A   Clear
12:55 PM 62.6 °F - 17.6 °F 18% 30.05 in 10.0 mi South 12.7 mph - N/A   Clear
1:15 PM 62.6 °F - 17.6 °F 18% 30.04 in 10.0 mi SSW 17.3 mph 23.0 mph N/A   Clear
1:35 PM 64.4 °F - 17.6 °F 16% 30.03 in 10.0 mi SSW 15.0 mph 21.9 mph N/A   Clear
1:55 PM 64.4 °F - 17.6 °F 16% 30.01 in 10.0 mi South 11.5 mph 18.4 mph N/A   Clear
2:15 PM 64.4 °F - 17.6 °F 16% 30.00 in 10.0 mi SSW 15.0 mph 19.6 mph N/A   Clear
2:35 PM 66.2 °F - 17.6 °F 15% 29.98 in 10.0 mi South 17.3 mph 21.9 mph N/A   Clear
2:55 PM 66.2 °F - 17.6 °F 15% 29.97 in 10.0 mi South 12.7 mph 20.7 mph N/A   Clear
3:15 PM 66.2 °F - 17.6 °F 15% 29.96 in 10.0 mi South 15.0 mph 21.9 mph N/A   Clear
3:35 PM 66.2 °F - 17.6 °F 15% 29.96 in 10.0 mi South 8.1 mph 20.7 mph N/A   Clear
3:55 PM 66.2 °F - 15.8 °F 14% 29.95 in 10.0 mi West 11.5 mph 19.6 mph N/A   Clear
4:15 PM 66.2 °F - 14.0 °F 13% 29.95 in 10.0 mi West 18.4 mph 23.0 mph N/A   Clear
4:35 PM 66.2 °F - 12.2 °F 12% 29.94 in 10.0 mi WSW 19.6 mph 23.0 mph N/A   Clear
4:55 PM 66.2 °F - 10.4 °F 11% 29.94 in 10.0 mi WSW 16.1 mph 19.6 mph N/A   Clear
5:15 PM 66.2 °F - 10.4 °F 11% 29.94 in 10.0 mi WSW 12.7 mph - N/A   Clear
5:35 PM 64.4 °F - 8.6 °F 11% 29.94 in 10.0 mi SW 12.7 mph 19.6 mph N/A   Clear
5:55 PM 64.4 °F - 8.6 °F 11% 29.94 in 10.0 mi WSW 15.0 mph - N/A   Clear
6:15 PM 62.6 °F - 6.8 °F 11% 29.94 in 10.0 mi WSW 12.7 mph - N/A   Clear
6:35 PM 59.0 °F - 6.8 °F 13% 29.95 in 10.0 mi West 8.1 mph - N/A   Clear
6:55 PM 57.2 °F - 3.2 °F 11% 29.95 in 10.0 mi West 5.8 mph - N/A   Clear
7:15 PM 53.6 °F - 3.2 °F 13% 29.95 in 10.0 mi WSW 3.5 mph - N/A   Clear
7:35 PM 51.8 °F - 3.2 °F 14% 29.95 in 10.0 mi SSE 5.8 mph - N/A   Clear
7:55 PM 51.8 °F - 6.8 °F 16% 29.94 in 10.0 mi South 4.6 mph - N/A   Clear
8:15 PM 48.2 °F - 5.0 °F 17% 29.94 in 10.0 mi South 3.5 mph - N/A   Clear
8:35 PM 44.6 °F 41.4 °F 3.2 °F 18% 29.95 in 10.0 mi SE 5.8 mph - N/A   Clear
8:55 PM 44.6 °F 42.2 °F 10.4 °F 25% 29.95 in 10.0 mi SSE 4.6 mph - N/A   Clear
9:15 PM 39.2 °F 35.0 °F 8.6 °F 28% 29.95 in 10.0 mi East 5.8 mph - N/A   Clear
9:35 PM 37.4 °F 33.8 °F 10.4 °F 33% 29.95 in 10.0 mi East 4.6 mph - N/A   Clear
9:55 PM 35.6 °F - 8.6 °F 33% 29.95 in 10.0 mi Calm Calm - N/A   Clear
10:15 PM 35.6 °F - 8.6 °F 33% 29.95 in 10.0 mi Calm Calm - N/A   Clear
10:35 PM 33.8 °F - 8.6 °F 35% 29.95 in 10.0 mi Calm Calm - N/A   Clear
10:55 PM 30.2 °F 25.4 °F 6.8 °F 37% 29.95 in 10.0 mi North 4.6 mph - N/A   Clear
11:15 PM 32.0 °F 27.5 °F 8.6 °F 38% 29.95 in 10.0 mi North 4.6 mph - N/A   Clear
11:35 PM 33.8 °F 29.6 °F 10.4 °F 38% 29.95 in 10.0 mi ENE 4.6 mph - N/A   Clear
11:55 PM 33.8 °F - 10.4 °F 38% 29.95 in 10.0 mi Calm Calm - N/A   Clear